This is the latest recevied weather packets stored in our database for station/object SV9TNF-52. If no packets are shown the sender has not sent any weather packets the latest 10 day(s).
| Time | Temp. | Humidity | Pressure | Rain* | Wind** | Luminosity | Snow |
|---|---|---|---|---|---|---|---|
| 1787936187 | 28.33° C | 67% | 1019.6 hPa | 0 mm | 0 m/s | - | - |
| 1787935887 | 28.33° C | 67% | 1019.6 hPa | 0 mm | 2.24 m/s, 335° | - | - |
| 1787935587 | 28.33° C | 66% | 1019.6 hPa | 0 mm | 0.45 m/s, 19° | - | - |
| 1787935287 | 28.33° C | 66% | 1019.6 hPa | 0 mm | 1.34 m/s, 24° | - | - |
| 1787934987 | 28.89° C | 66% | 1019.6 hPa | 0 mm | 2.68 m/s, 14° | - | - |
| 1787934687 | 28.89° C | 66% | 1019.6 hPa | 0 mm | 4.02 m/s, 37° | - | - |
| 1787934387 | 28.89° C | 65% | 1019.6 hPa | 0 mm | 0.45 m/s, 357° | - | - |
| 1787934087 | 29.44° C | 64% | 1019.6 hPa | 0 mm | 1.34 m/s, 272° | - | - |
| 1787933786 | 29.44° C | 64% | 1019.6 hPa | 0 mm | 0.89 m/s, 259° | - | - |
| 1787933486 | 29.44° C | 63% | 1019.6 hPa | 0 mm | 4.02 m/s, 43° | - | - |
| 1787933186 | 29.44° C | 63% | 1019.6 hPa | 0 mm | 3.58 m/s, 8° | - | - |
| 1787932886 | 30° C | 63% | 1019.6 hPa | 0 mm | 2.68 m/s, 355° | - | - |
| 1787932586 | 30° C | 62% | 1019.6 hPa | 0 mm | 3.13 m/s, 200° | - | - |
| 1787932286 | 30.56° C | 62% | 1019.6 hPa | 0 mm | 0.89 m/s, 168° | - | - |
| 1787931986 | 30.56° C | 60% | 1019.6 hPa | 0 mm | 1.79 m/s, 293° | - | - |
| 1787931686 | 31.11° C | 60% | 1019.6 hPa | 0 mm | 2.68 m/s, 271° | - | - |
| 1787931389 | 31.11° C | 59% | 1019.6 hPa | 0 mm | 4.02 m/s, 272° | - | - |
| 1787931085 | 31.11° C | 58% | 1019.6 hPa | 0 mm | 1.34 m/s, 239° | - | - |
| 1787930785 | 31.67° C | 59% | 1019.6 hPa | 0 mm | 1.79 m/s, 235° | - | - |
| 1787930485 | 31.67° C | 57% | 1019.6 hPa | 0 mm | 3.13 m/s, 239° | - | - |
| 1787930185 | 31.67° C | 58% | 1019.6 hPa | 0 mm | 1.79 m/s, 68° | - | - |
| 1787929885 | 31.67° C | 57% | 1019.6 hPa | 0 mm | 1.79 m/s, 325° | - | - |
| 1787929585 | 31.67° C | 56% | 1019.6 hPa | 0 mm | 0.45 m/s, 336° | - | - |
| 1787929285 | 31.11° C | 59% | 1019.6 hPa | 0 mm | 1.79 m/s, 164° | - | - |
| 1787928985 | 31.67° C | 57% | 1019.6 hPa | 0 mm | 0 m/s | - | - |
* Rain latest hour (hover to see other rain measurements)
** Current wind speed in m/s (hover to see current wind gust speed)